Theta_e
335 342 346 343 341 343 344 344 342 342 343 347 347 347 347 347 347 348 348 348 348 346 345 344 342 341 342 342 342 342 341 340 339 338 338 339 338 337 337 338 339 334 338
338 343 345 343 342 342 344 345 344 343 341 345 345 346 346 346 346 345 345 346 344 342 342 342 340 341 339 339 339 339 339 338 338 337 338 338 338 336 335 337 339 334 336
338 343 342 342 344 342 343 345 344 342 339 341 344 344 343 342 342 342 343 344 342 341 341 339 340 339 339 338 338 337 337 337 336 335 335 334 333 335 335 336 337 335 334
341 342 340 340 343 342 342 345 344 343 340 340 340 343 341 339 339 339 339 342 341 340 340 340 339 338 337 336 336 335 334 334 333 333 332 331 330 337 339 337 337 337 336
339 341 340 340 343 343 343 343 344 343 342 340 339 339 339 337 337 337 337 339 340 339 339 339 339 338 336 335 334 333 333 332 330 331 333 332 331 334 337 335 333 333 335
338 341 340 342 343 344 343 343 343 343 343 342 340 338 338 338 337 336 336 337 337 335 337 337 336 336 334 333 332 332 332 331 329 330 330 331 332 334 335 333 331 331 333
336 341 341 341 342 343 343 342 343 342 342 344 342 340 341 339 338 337 334 334 335 334 335 335 335 334 333 331 330 331 330 329 329 329 329 329 330 333 332 331 331 330 331
336 340 342 335 338 340 341 342 342 343 342 342 341 342 340 339 338 337 335 333 333 334 334 335 334 333 331 330 329 329 328 326 326 327 328 329 333 333 333 331 331 331 331
336 339 338 339 337 334 337 338 339 341 341 340 340 340 340 338 338 337 335 334 332 332 332 332 332 332 330 328 328 327 326 324 326 327 327 329 333 332 331 329 330 329 328
334 337 338 337 338 337 338 332 333 336 337 337 335 333 332 332 332 332 330 333 331 331 331 331 331 330 328 327 325 324 322 322 324 325 326 328 331 331 330 329 328 327 325
330 332 335 335 336 336 335 331 330 330 331 331 329 326 327 332 331 330 328 331 332 330 329 328 328 326 325 324 322 321 320 323 323 324 325 328 329 329 328 328 327 325 324
325 328 332 334 335 334 333 333 334 332 332 331 329 327 329 329 330 329 325 326 327 327 328 327 324 320 319 319 319 319 320 321 322 323 323 327 327 327 326 324 323 324 324
326 327 330 332 334 334 332 331 331 331 328 327 327 325 326 326 328 328 327 326 325 319 321 320 320 319 319 319 318 319 319 319 320 320 320 322 325 325 325 324 323 323 323
325 326 328 329 331 333 332 330 329 328 327 324 325 324 324 324 324 324 323 322 322 321 320 320 320 319 318 317 317 317 317 319 319 319 319 316 322 324 325 324 323 323 323
324 325 327 328 329 330 332 330 328 327 326 326 323 323 323 323 322 321 321 321 321 320 319 319 319 319 318 317 318 317 316 317 318 319 319 314 317 321 323 325 327 326 326
325 325 327 328 330 330 330 330 329 328 326 325 324 323 322 322 322 321 320 319 319 319 318 318 318 318 317 317 316 316 316 316 316 317 317 318 316 318 320 323 324 326 327
326 327 326 328 329 329 329 329 328 328 327 325 324 323 322 322 322 321 320 319 319 318 318 318 317 317 316 315 315 315 315 315 316 316 316 316 317 314 316 320 322 324 325
327 326 327 328 328 328 328 328 328 327 328 327 325 323 322 322 322 321 320 320 319 318 318 317 317 316 315 315 314 315 315 314 314 315 315 315 314 313 314 315 318 320 321
327 327 327 328 327 327 328 329 328 328 328 329 327 324 322 321 322 321 321 321 319 318 317 316 315 314 314 313 313 314 314 314 314 313 312 312 313 314 314 313 313 312 315
326 327 328 328 328 327 328 328 328 328 328 329 329 327 325 322 320 320 320 318 317 317 317 315 314 312 313 313 310 310 313 314 313 313 313 311 312 313 310 310 310 310 311
324 325 326 327 328 328 327 325 325 325 327 329 329 328 326 324 322 320 320 318 317 316 316 313 312 313 312 310 311 312 311 312 311 311 311 311 309 308 310 310 310 311 310
324 324 324 326 327 328 328 328 327 327 328 329 330 329 327 325 323 321 321 319 317 316 314 312 310 308 311 308 311 308 308 312 311 308 308 307 309 307 307 308 308 308 306
320 323 324 325 326 327 328 327 323 325 325 325 326 327 328 327 325 323 321 321 318 317 316 315 312 311 311 308 309 312 303 305 307 310 308 308 308 308 307 306 304 303 303
314 321 323 325 326 326 328 326 325 325 323 325 326 327 326 327 326 324 323 322 320 318 317 316 314 314 312 311 307 308 308 307 304 301 305 305 303 303 305 305 304 300 302
299 310 319 322 324 326 326 327 326 325 326 327 322 323 324 324 324 323 323 321 320 318 318 318 315 313 312 313 311 308 304 304 304 302 298 301 304 303 303 300 301 301 300
295 299 309 317 321 323 325 326 325 325 325 321 321 321 322 323 323 323 322 321 321 320 318 317 316 316 315 312 313 309 308 303 300 299 298 299 298 298 298 300 301 299 299
Wind_Speed
5 5 11 12 10 9 9 15 15 12 12 14 16 16 16 17 18 17 17 18 18 18 20 20 19 19 20 20 21 20 21 20 20 20 19 19 19 20 19 16 17 17 18
10 7 11 12 11 10 9 15 15 13 12 13 15 16 16 17 17 17 17 17 18 17 18 18 18 18 20 18 19 19 19 18 18 16 13 14 17 18 17 17 16 16 18
11 8 12 12 11 10 9 12 14 13 13 11 14 14 15 15 16 16 15 16 16 16 16 18 17 18 18 18 18 19 18 18 17 15 13 11 14 16 16 16 16 17 16
10 8 10 11 10 9 10 14 13 11 15 12 12 14 14 13 14 16 15 15 14 16 16 16 17 17 17 17 17 16 16 16 15 13 10 10 12 16 19 20 21 20 19
10 9 10 12 11 9 11 12 13 11 13 13 13 12 12 14 15 15 14 15 16 15 16 15 16 16 16 16 16 16 16 15 13 10 10 9 9 14 18 18 17 18 16
10 10 10 12 11 9 10 10 11 11 12 13 13 14 14 15 14 14 14 14 14 14 14 14 15 15 15 15 15 15 15 14 12 10 10 12 11 15 16 16 15 15 13
10 9 10 10 11 10 9 9 8 11 11 12 12 11 12 15 13 13 14 13 13 13 12 13 14 14 14 14 14 14 13 13 11 10 10 10 10 13 14 14 14 14 13
11 9 9 9 10 9 10 9 9 10 11 13 12 13 14 14 13 12 13 12 12 12 12 12 13 13 13 14 13 13 13 11 9 10 9 8 9 14 15 14 14 15 16
9 9 8 8 9 8 9 9 8 9 10 11 11 11 12 11 11 11 10 11 11 11 12 11 11 12 13 13 13 12 12 11 9 7 8 6 12 13 13 12 13 13 12
8 8 8 8 8 7 7 7 8 8 9 9 9 9 10 10 10 10 9 10 11 11 11 10 11 11 12 13 12 11 10 9 8 7 6 7 10 11 11 10 10 10 10
7 8 6 8 7 7 7 6 7 7 7 8 8 9 8 6 7 7 7 9 9 10 11 11 10 10 11 11 11 9 7 4 5 4 4 9 9 10 10 10 9 8 7
12 9 7 7 8 7 5 6 5 5 4 4 6 6 5 5 5 5 7 8 8 9 10 9 9 8 6 3 3 5 3 4 3 3 4 10 8 7 7 6 6 5 5
13 10 9 7 8 7 6 4 3 3 3 3 4 4 4 4 3 3 3 3 3 5 3 4 4 3 4 3 3 3 3 3 2 2 3 8 8 6 5 5 5 4 2
14 12 12 11 10 7 5 4 5 4 4 3 4 5 4 3 3 3 2 2 2 2 3 2 2 2 3 3 2 1 1 1 1 1 2 6 7 7 7 4 4 5 4
13 13 13 12 11 10 7 6 5 5 5 5 5 5 4 4 4 3 3 2 1 1 1 2 1 1 1 0 0 1 2 2 3 2 2 5 6 7 7 9 8 6 8
14 13 12 13 12 12 10 8 7 6 6 5 5 6 7 5 5 4 3 3 3 3 2 2 1 1 1 1 2 3 3 3 4 4 3 4 6 6 8 9 9 11 13
10 10 13 13 13 13 13 11 8 7 6 6 6 7 8 7 6 6 4 4 4 3 4 3 2 2 2 2 3 3 4 5 5 6 5 4 4 5 7 9 9 11 12
10 12 11 10 13 12 12 10 8 7 8 7 7 6 9 8 8 6 5 5 4 4 4 3 3 3 3 2 3 4 4 5 6 7 6 5 3 4 5 6 8 9 11
12 11 12 12 13 14 11 9 9 9 8 8 7 7 9 10 10 7 6 6 6 4 4 3 3 3 2 3 4 5 5 6 7 6 7 4 4 5 4 6 8 8 9
11 11 12 11 13 12 8 7 6 6 7 8 8 8 11 8 9 7 5 5 5 4 4 4 5 4 4 3 4 6 6 7 6 6 6 5 4 4 3 4 3 4 8
10 12 13 13 13 10 8 8 7 8 8 8 8 10 9 8 9 9 6 6 6 6 6 5 3 5 4 3 3 3 3 5 5 4 2 3 2 1 2 2 2 3 4
15 14 13 16 14 13 10 9 5 7 6 7 7 8 10 10 10 9 9 7 7 5 6 6 6 3 3 5 2 0 3 1 1 1 2 1 2 1 3 3 4 4 3
15 16 16 16 15 14 14 7 3 2 1 4 5 6 8 11 11 11 11 8 8 7 7 7 7 8 4 3 6 3 1 5 2 1 2 1 1 2 2 2 3 3 4
18 13 15 15 17 15 16 12 14 12 10 9 8 7 8 10 9 9 9 9 8 6 7 8 7 7 5 7 2 6 3 3 3 3 1 2 2 2 3 2 4 3 5
8 12 13 13 14 15 15 16 12 13 10 7 4 8 8 6 8 9 10 9 8 7 9 8 6 9 7 4 5 3 4 2 1 3 3 2 0 2 1 2 3 4 4
7 8 7 12 14 13 14 16 15 15 13 7 7 7 5 4 5 8 8 7 8 8 8 7 7 8 8 6 5 5 4 3 3 3 4 2 3 1 1 1 2 3 2
Wind_Direction
171 168 129 120 125 110 93 109 102 91 87 86 92 90 85 86 82 76 74 82 76 73 74 73 74 76 75 76 78 76 75 71 70 69 66 66 61 58 54 60 67 62 62
150 162 134 124 130 108 88 111 102 97 94 90 88 86 86 85 83 81 77 71 70 75 80 81 80 75 73 67 64 70 67 61 56 53 52 68 67 60 55 55 66 64 61
145 158 131 127 127 120 101 105 104 101 89 97 96 96 91 84 82 86 84 80 82 86 89 84 82 78 74 72 72 69 67 63 59 54 48 63 64 59 66 58 57 63 67
138 138 132 124 131 127 107 100 96 92 96 97 101 85 89 88 85 83 77 81 82 82 85 84 81 80 77 75 75 74 71 68 61 53 64 61 68 66 67 69 65 63 65
135 136 139 129 136 126 117 99 104 100 107 102 100 99 98 98 92 89 91 83 82 75 75 84 77 75 74 71 69 69 68 65 59 58 54 64 69 64 73 67 63 58 56
140 141 141 133 134 123 124 110 104 106 100 111 104 106 109 103 93 94 92 76 79 83 79 82 81 80 77 72 67 67 68 65 65 61 57 52 63 67 65 64 62 57 57
146 143 141 132 129 121 120 119 106 109 95 116 116 106 110 108 100 98 93 86 82 83 81 86 84 83 78 73 69 69 65 60 60 57 52 57 60 67 62 60 60 55 68
147 142 140 134 127 125 123 111 107 114 105 104 98 100 108 108 103 95 98 92 87 85 81 83 86 86 82 74 72 69 64 62 64 58 46 41 55 68 66 61 61 66 62
141 141 140 142 137 130 127 122 108 96 97 97 95 94 94 98 95 93 90 93 87 87 80 81 91 88 79 72 69 66 61 56 63 53 42 48 51 62 61 58 66 69 64
147 149 147 143 146 139 141 125 121 114 106 103 97 92 98 93 88 89 87 94 91 91 88 81 94 85 77 72 72 70 63 56 54 48 41 44 51 57 58 60 61 58 55
160 167 156 154 150 145 145 139 125 122 114 103 94 90 93 103 102 98 89 87 87 90 92 82 83 79 74 67 60 60 58 55 56 49 43 23 41 56 54 53 50 56 53
173 180 173 168 159 153 151 146 140 130 129 127 125 120 115 114 111 108 96 87 77 72 77 76 74 77 76 68 61 60 61 59 55 41 36 12 41 51 53 45 48 33 53
178 181 179 180 170 159 160 151 143 143 139 134 136 125 118 119 123 113 112 103 102 74 74 66 65 61 65 61 60 61 57 68 56 33 17 7 15 23 28 26 23 20 19
184 185 186 185 185 163 153 171 166 166 161 161 159 148 144 137 130 128 124 115 119 128 126 90 90 95 90 78 73 77 44 353 12 360 347 351 350 355 350 346 353 341 338
191 188 187 180 183 187 162 170 185 186 180 173 170 169 167 163 166 163 161 159 156 152 164 143 126 119 104 81 347 314 333 310 308 316 314 324 333 332 330 330 322 307 296
197 191 179 181 183 186 189 179 190 195 187 179 184 188 184 181 179 181 183 188 186 195 182 201 210 253 253 285 289 306 297 297 298 297 290 294 303 320 317 312 313 314 314
197 187 182 182 182 186 195 198 199 200 193 191 193 197 195 187 188 190 193 198 204 191 192 201 205 214 244 262 279 285 290 289 287 284 285 286 294 298 300 305 311 312 313
187 186 184 182 185 189 193 196 193 195 198 198 198 195 202 203 201 202 205 211 197 195 204 208 205 241 265 275 286 277 275 275 279 279 279 282 276 279 288 296 302 309 317
192 186 188 186 188 193 198 195 195 193 196 205 198 198 203 205 202 206 209 211 194 199 205 208 215 229 237 248 263 276 270 272 275 277 270 253 268 281 289 290 304 315 318
193 191 194 193 197 194 193 200 201 197 205 204 202 201 195 197 197 196 200 198 185 206 212 203 213 198 245 258 274 273 266 261 260 263 281 273 272 287 307 314 319 317 319
192 199 195 192 198 184 185 190 206 210 205 206 200 198 196 192 190 193 202 185 183 198 198 192 204 224 237 215 275 292 271 265 261 256 261 299 330 8 21 338 332 333 333
205 204 199 204 194 192 192 199 193 188 209 208 198 201 193 192 190 192 201 202 192 193 191 193 182 181 232 191 206 209 295 291 204 164 92 45 63 39 57 34 39 6 345
210 203 205 204 199 195 196 183 142 146 123 188 201 208 211 199 196 192 195 196 194 190 204 202 195 195 226 202 220 196 189 237 5 174 123 160 95 39 359 55 44 17 14
218 206 206 202 202 197 191 190 200 206 208 211 200 205 200 201 202 197 197 203 199 197 202 205 197 205 192 232 191 232 241 167 196 275 273 128 352 113 58 341 31 8 33
206 204 208 202 204 196 196 199 201 211 216 211 184 196 197 199 203 199 203 201 199 200 218 212 196 200 203 224 206 170 229 226 176 210 265 276 150 61 335 6 40 39 42
199 200 192 195 205 195 194 202 204 210 212 193 197 202 202 197 207 215 208 203 213 211 206 211 203 202 213 217 223 199 202 185 186 179 222 216 251 328 58 11 89 70 60